Content
SEND FEEDBACK

Daily
Averages
Monthly
Summary
United States of America

CHESTERFIELD, MISSOURI


Home > North America > United States > Missouri
Elevation: 559 feet     Latitude: 38 41N     Longitude: 090 31W

WEATHER
 
SELECT A DAY
Number of Records: 207,547;   Date Range: 1/1/95 - 11/26/14
 
SHARE

PRINT THIS DATA

[ ← Previous Day ]
WEATHER ALMANAC - APRIL 30, 2013
[ Next Day → ]
[ °C ]   °F
Weather ElementAverageHighLow
Temperature75.5 °F87.1 °F (2:51 pm)63 °F (5:51 am)
Dewpoint55.2 °F57.9 °F (1:51 am)48.9 °F (2:51 pm)
Humidity52.3 %78 % (3:51 am)27 % (2:51 pm)
Barometer29.84 in29.92 in (10:51 pm)29.78 in (1:51 am)
Wind Speed12.5 mph19.6 mph (12:51 pm)
Wind Gust33.4 mph (12:51 pm)
Weather ElementAverage
Visibility10 mi
Wind DirectionS (179.1 °)

Weather ElementTotal
Precipitation---
Cooling Degree Days10.1 (Base 65)
Growing Degree Days25.1 (Base 50)
Averaged from 23 records on April 30, 2013
WEATHER CONDITIONS BREAKOUT
WIND DIRECTION BREAKOUT
WEATHER BY HOUR - APRIL 30, 2013
[ °C ]   °F
Local TimeTemperatureDewpointHumidityBarometerVisibilityWind DirectionWind SpeedGust SpeedPrecipitationEventsConditions
1:51 AM66.0 °F57.9 °F75 %29.78 in10.0 miSouth (180°)8.1 mphClear
2:51 AM66.0 °F57.9 °F75 %29.78 in10.0 miSouth (180°)9.2 mphClear
3:51 AM64.9 °F57.9 °F78 %29.79 in10.0 miSouth (180°)9.2 mphClear
4:51 AM64.9 °F57.0 °F75 %29.79 in10.0 miSouth (180°)6.9 mphPartly Cloudy
5:51 AM63.0 °F55.9 °F78 %29.81 in10.0 miSouth (180°)4.6 mphScattered Clouds
6:51 AM64.9 °F55.9 °F73 %29.84 in10.0 miSouth (170°)6.9 mphMostly Cloudy
7:51 AM68.0 °F57.0 °F68 %29.86 in10.0 miSSW (200°)5.8 mphMostly Cloudy
8:51 AM72.0 °F57.0 °F59 %29.86 in10.0 miSSW (210°)10.4 mphMostly Cloudy
9:51 AM75.9 °F57.9 °F54 %29.86 in10.0 miSW (220°)8.1 mphMostly Cloudy
10:51 AM80.1 °F57.9 °F47 %29.86 in10.0 miSSW (210°)10.4 mphMostly Cloudy
11:51 AM82.9 °F57.0 °F41 %29.85 in10.0 miSW (220°)9.2 mphScattered Clouds
12:51 PM84.9 °F52.0 °F32 %29.83 in10.0 miSW (220°)19.6 mph33.4 mphScattered Clouds
1:51 PM86.0 °F53.1 °F32 %29.82 in10.0 miSouth (180°)16.1 mph23.0 mphScattered Clouds
2:51 PM87.1 °F48.9 °F27 %29.82 in10.0 miSSE (160°)17.3 mph24.2 mphScattered Clouds
3:51 PM86.0 °F48.9 °F28 %29.81 in10.0 miSSE (160°)18.4 mph26.5 mphMostly Cloudy
4:51 PM86.0 °F48.9 °F28 %29.82 in10.0 miSSE (160°)17.3 mph26.5 mphMostly Cloudy
5:51 PM82.9 °F55.0 °F38 %29.83 in10.0 miSSE (160°)19.6 mph26.5 mphMostly Cloudy
6:51 PM81.0 °F57.0 °F44 %29.84 in10.0 miSE (140°)17.3 mph25.3 mphMostly Cloudy
7:51 PM78.1 °F55.9 °F46 %29.86 in10.0 miSSE (150°)17.3 mph27.6 mphMostly Cloudy
8:51 PM75.9 °F55.0 °F48 %29.89 in10.0 miSSE (150°)16.1 mph23.0 mphPartly Cloudy
9:51 PM75.0 °F55.9 °F51 %29.91 in10.0 miSouth (170°)13.8 mphPartly Cloudy
10:51 PM73.9 °F55.9 °F53 %29.92 in10.0 miSouth (170°)15.0 mphClear
11:51 PM72.0 °F54.0 °F53 %29.92 in10.0 miSouth (170°)10.4 mphClear
Hourly data recorded from KSTL, located miles away from Chesterfield, Missouri







STORIES FROM OUR PARTNERS